Find Starlink 35690

NORAD ID: 66383 Int'l Des: 2025-257 Owner: SPXS Country: US Constellation: starlink operational
LEOCIRCULAR

当前视图

正在加载3D地球...

About Starlink 35690

Starlink 35690 (NORAD 66383) is a starlink constellation satellite (v2 mini) launched Nov 9, 2025 by SPXS of US. It operates in LEO, CIRCULAR orbit with a mass of 575.00 kg.

即将过境

Passes for default location (London). Set your location on the main map for personalized predictions.

高度历史

Loading altitude history...

两行轨道根数

1 66383U 25257D 26264.92567145 .00011273 00000-0 34428-3 0 9994
2 66383 53.1604 20.8811 0001348 100.6119 259.5035 15.34399091 49849
Epoch: Sep 21, 2026 • Age: 8 hours

当前状态

高度 464.5 km
远地点 / 近地点 N/A
速度 7.64 km/s
星下点 33.71°N, 45.33°W
发射日期 Nov 9, 2025
运行时间 0.8 years
类型 internet

技术详情

分类 Payload
质量 575.00 kg
干质量 530.00 kg
长度 0.30 m
跨度 29.00 m
形状 ? Box + pan
制造商 SPXS
平台类型 Starlink V2MO
阶段状态 In Orbit
所有者/国家 SPXS/US

Most Searched